EW4713 Weather Reports


time (UTC)temp
C
wind
direction
speed
KPH
gust
KPH
rain 1hr
cm
rain 24hr
cm
rain mn
cm
humidity
%
barometer
mb
20260901070029 15 345 0.0 1.6 0.00 0.20 0.00 82 1007.9
20260901065530 15 345 0.0 1.6 0.00 0.20 0.00 82 1008.2
20260901065028 15 90 0.0 0.0 0.00 0.20 0.00 80 1008.2
20260901064531 16 81 0.0 0.0 0.00 0.20 0.00 79 1008.2
20260901064030 16 75 0.0 0.0 0.00 0.20 0.00 79 1007.9
20260901063531 16 75 0.0 0.0 0.00 0.20 0.00 77 1008.2
20260901063029 16 90 0.0 1.6 0.00 0.20 0.00 76 1008.2
20260901062531 16 90 0.0 3.2 0.00 0.23 0.00 75 1008.2
20260901062029 17 84 1.6 3.2 0.00 0.61 0.00 75 1007.5
20260901061530 17 106 0.0 3.2 0.00 0.61 0.00 77 1007.9
20260901061030 17 82 0.0 3.2 0.00 0.61 0.00 74 1007.5
20260901060531 17 90 1.6 3.2 0.00 0.61 0.00 75 1007.5
20260901060028 17 98 0.0 3.2 0.00 0.61 0.00 76 1007.9
20260901055529 17 81 0.0 4.8 0.00 0.61 0.00 75 1007.5
20260901054027 17 121 3.2 11.3 0.00 0.61 0.00 73 1007.5
20260901053528 17 135 3.2 11.3 0.00 0.61 0.00 75 1007.5
20260901053027 17 90 1.6 4.8 0.00 0.61 0.00 75 1007.2
20260901052528 17 90 0.0 3.2 0.00 0.61 0.00 77 1007.2
20260901052026 17 8 0.0 4.8 0.00 0.61 0.00 76 1007.2
20260901051528 17 90 0.0 4.8 0.00 0.61 0.00 74 1006.9
20260901051025 17 157 0.0 1.6 0.00 0.61 0.00 75 1007.2
20260901050526 17 0 0.0 1.6 0.00 0.61 0.00 74 1006.9
20260901050025 17 286 0.0 4.8 0.00 0.61 0.00 75 1006.9
20260901045526 17 7 1.6 4.8 0.00 0.61 0.61 74 1006.9
20260901045024 17 8 0.0 3.2 0.00 0.61 0.61 73 1007.2
20260901044524 17 345 0.0 1.6 0.00 0.61 0.61 74 1007.2
20260901044023 17 111 0.0 1.6 0.00 0.61 0.61 73 1006.9
20260901043524 17 0 0.0 3.2 0.00 0.61 0.61 73 1006.9
20260901043023 18 166 0.0 3.2 0.00 0.61 0.61 73 1006.9
20260901042524 18 98 0.0 3.2 0.00 0.61 0.61 73 1007.2
20260901041524 17 270 0.0 4.8 0.00 0.61 0.61 73 1006.9
20260901040523 17 7 0.0 4.8 0.00 0.61 0.61 74 1006.9
20260901034521 18 7 0.0 3.2 0.00 0.61 0.61 73 1006.9
20260901034020 18 75 0.0 3.2 0.00 0.61 0.61 73 1006.9
20260901033020 18 160 0.0 3.2 0.00 0.61 0.61 74 1006.9
20260901032521 18 15 0.0 3.2 0.00 0.61 0.61 74 1006.5
20260901032019 18 166 0.0 3.2 0.00 0.61 0.61 74 1006.9
20260901031018 18 8 0.0 3.2 0.00 0.61 0.61 73 1007.2
20260901030520 19 165 0.0 3.2 0.00 0.61 0.61 73 1006.9
20260901030018 19 209 0.0 3.2 0.00 0.61 0.61 72 1006.9
20260901025018 20 345 0.0 3.2 0.00 0.61 0.61 71 1006.9
20260901024019 20 345 0.0 4.8 0.00 0.61 0.61 71 1006.9
20260901023516 19 194 0.0 3.2 0.00 0.61 0.61 71 1006.9
20260901023016 19 220 0.0 3.2 0.00 0.61 0.61 71 1006.9
20260901022515 20 8 0.0 3.2 0.00 0.61 0.61 70 1006.9
20260901022015 20 352 0.0 3.2 0.00 0.61 0.61 71 1006.9
20260901021515 20 279 0.0 4.8 0.00 0.61 0.61 69 1006.9
20260901021015 20 270 0.0 4.8 0.00 0.61 0.61 70 1006.9
20260901020516 20 213 3.2 3.2 0.00 0.61 0.61 69 1006.9
20260901020001 20 294 3.2 3.2 0.00 0.61 0.61 69 1006.9
20260901015503 20 261 0.0 3.2 0.00 0.61 0.61 68 1006.5
20260901015001 20 337 0.0 3.2 0.00 0.61 0.61 68 1006.5
20260901014503 20 270 0.0 3.2 0.00 0.61 0.61 67 1006.5
20260901014001 20 307 0.0 3.2 0.00 0.61 0.61 66 1006.5
20260901013502 21 279 0.0 3.2 0.00 0.61 0.61 66 1006.1
20260901013001 21 117 0.0 3.2 0.00 0.61 0.61 65 1006.5
20260901012503 21 294 1.6 3.2 0.00 0.61 0.61 66 1006.5
20260901012001 21 281 0.0 3.2 0.00 0.61 0.61 64 1006.1
20260901011501 21 6 0.0 3.2 0.00 0.61 0.61 63 1006.1
20260901011000 21 254 0.0 3.2 0.00 0.61 0.61 63 1006.1
20260901010501 22 277 0.0 3.2 0.00 0.61 0.61 62 1006.1
20260901010001 22 291 0.0 6.4 0.00 0.61 0.61 61 1006.1
20260901005501 22 270 0.0 6.4 0.00 0.61 0.61 60 1006.1
20260901005002 22 249 0.0 3.2 0.00 0.61 0.61 59 1006.5
20260901004000 23 233 3.2 4.8 0.00 0.61 0.61 57 1006.1
20260901003004 23 90 0.0 8.0 0.00 0.61 0.61 56 1006.5
20260901002001 23 0 0.0 8.0 0.00 0.61 0.61 55 1006.5
20260901001500 24 264 0.0 8.0 0.00 0.61 0.61 54 1006.1
20260901000004 25 270 0.0 6.4 0.00 0.61 0.61 52 1006.1
20260831235501 25 140 0.0 6.4 0.00 0.61 0.61 52 1006.5
20260831235001 25 15 1.6 6.4 0.00 0.61 0.61 49 1006.5
20260831234502 26 107 3.2 4.8 0.00 0.61 0.61 48 1006.1
20260831234001 26 11 3.2 8.0 0.00 0.61 0.61 48 1006.5
20260831233502 26 315 3.2 8.0 0.00 0.61 0.61 46 1006.5
20260831233002 26 23 3.2 9.7 0.00 0.61 0.61 45 1006.5
20260831232503 26 90 0.0 9.7 0.00 0.61 0.61 46 1006.5
20260831232001 26 7 3.2 9.7 0.00 0.61 0.61 47 1006.5
20260831231001 26 145 9.7 11.3 0.00 0.61 0.61 47 1006.5
20260831230503 26 0 0.0 9.7 0.00 0.61 0.61 46 1006.5
20260831230001 26 145 1.6 9.7 0.00 0.61 0.61 46 1006.9
20260831225501 26 57 3.2 8.0 0.00 0.61 0.61 46 1006.5
20260831225001 26 77 0.0 8.0 0.00 0.61 0.61 45 1006.5
20260831224502 27 135 3.2 11.3 0.00 0.61 0.61 44 1006.5
20260831223501 27 348 1.6 9.7 0.00 0.61 0.61 42 1006.5
20260831223006 27 105 0.0 8.0 0.00 0.61 0.61 42 1006.9
20260831222503 27 300 3.2 9.7 0.00 0.61 0.61 43 1006.1
20260831222001 27 349 6.4 9.7 0.00 0.61 0.61 40 1006.5
20260831221502 27 286 0.0 8.0 0.00 0.61 0.61 42 1006.5
20260831221000 27 180 0.0 8.0 0.00 0.61 0.61 44 1006.1
20260831220503 27 173 1.6 9.7 0.00 0.61 0.61 40 1006.5
20260831220002 27 133 4.8 14.5 0.00 0.61 0.61 42 1006.1
20260831215001 27 180 3.2 9.7 0.00 0.61 0.61 45 1006.5
20260831214502 27 51 3.2 9.7 0.00 0.61 0.61 42 1006.5
20260831214001 28 66 0.0 6.4 0.00 0.61 0.61 43 1006.5
20260831213503 28 23 0.0 6.4 0.00 0.61 0.61 42 1006.1
20260831212001 28 220 4.8 6.4 0.00 0.61 0.61 46 1006.5
20260831211502 28 281 3.2 6.4 0.00 0.61 0.61 45 1006.5
20260831211002 27 345 1.6 6.4 0.00 0.61 0.61 43 1006.9
20260831210502 28 7 6.4 8.0 0.00 0.61 0.61 41 1006.5
20260831210001 28 348 1.6 8.0 0.00 0.61 0.61 43 1006.5
20260831205500 28 168 1.6 9.7 0.00 0.61 0.61 42 1006.9
20260831205001 28 99 3.2 11.3 0.00 0.61 0.61 42 1006.9
20260831203502 28 203 0.0 6.4 0.00 0.61 0.61 50 1006.9
20260831203001 27 334 1.6 6.4 0.00 0.61 0.61 42 1006.9
20260831202000 27 0 0.0 9.7 0.00 0.61 0.61 47 1006.9
20260831201001 27 12 1.6 8.0 0.00 0.61 0.61 49 1006.9
20260831200502 28 98 0.0 6.4 0.00 0.61 0.61 47 1006.9
20260831200000 27 68 3.2 12.9 0.00 0.61 0.61 45 1006.9
20260831195501 27 77 1.6 12.9 0.00 0.61 0.61 46 1007.2
20260831195001 27 29 3.2 8.0 0.00 0.61 0.61 49 1007.2
20260831194501 27 105 3.2 8.0 0.00 0.61 0.61 46 1007.2
20260831194001 27 180 1.6 6.4 0.00 0.61 0.61 46 1007.2
20260831193502 27 90 0.0 6.4 0.00 0.61 0.61 47 1006.9
20260831193001 27 213 3.2 6.4 0.00 0.61 0.61 49 1006.9
20260831192001 26 106 1.6 6.4 0.00 0.61 0.61 48 1006.9
20260831191503 26 119 3.2 8.0 0.00 0.61 0.61 50 1007.2
20260831191001 26 98 0.0 8.0 0.00 0.61 0.61 48 1006.9
20260831185502 26 185 0.0 6.4 0.00 0.61 0.61 52 1007.5
20260831184503 26 157 0.0 3.2 0.00 0.61 0.61 61 1007.2
20260831184002 26 173 1.6 9.7 0.00 0.61 0.61 57 1007.5
20260831183502 25 154 1.6 9.7 0.00 0.61 0.61 56 1007.2
20260831183001 25 49 0.0 9.7 0.00 0.61 0.61 53 1007.2
20260831182502 25 346 0.0 8.0 0.00 0.61 0.61 55 1007.2
20260831181501 25 176 0.0 11.3 0.00 0.61 0.61 62 1007.5
20260831181001 25 99 0.0 11.3 0.00 0.61 0.61 62 1007.5
20260831180501 25 127 3.2 8.0 0.00 0.61 0.61 64 1007.5
20260831180000 25 8 3.2 14.5 0.00 0.61 0.61 60 1007.5
20260831175500 24 121 0.0 14.5 0.00 0.61 0.61 61 1007.5
20260831175003 24 166 3.2 8.0 0.00 0.61 0.61 64 1007.9
20260831174502 24 241 0.0 6.4 0.00 0.61 0.61 66 1007.5
20260831174001 24 90 0.0 6.4 0.00 0.61 0.61 64 1007.5
20260831173505 24 75 3.2 6.4 0.00 0.61 0.61 64 1007.2
20260831173000 24 166 1.6 6.4 0.00 0.61 0.61 66 1007.5
20260831172503 23 172 0.0 6.4 0.00 0.61 0.61 67 1007.5
20260831172001 23 165 3.2 11.3 0.00 0.61 0.61 66 1007.2
20260831171500 23 144 3.2 11.3 0.00 0.61 0.61 67 1007.5
20260831171001 23 257 0.0 8.0 0.00 0.61 0.61 67 1007.5
20260831170001 23 194 1.6 6.4 0.00 0.61 0.61 69 1007.5
20260831164503 23 188 3.2 6.4 0.00 0.61 0.61 70 1007.2
20260831164001 23 0 1.6 6.4 0.00 0.61 0.61 76 1007.2
20260831163502 22 166 3.2 4.8 0.00 0.61 0.61 75 1007.2
20260831162503 22 8 0.0 4.8 0.00 0.61 0.61 77 1006.9
20260831162002 22 157 1.6 4.8 0.00 0.61 0.61 77 1006.9
20260831161503 22 342 0.0 4.8 0.00 0.61 0.61 78 1006.9
20260831161001 22 56 3.2 6.4 0.00 0.61 0.61 83 1007.2
20260831160000 21 0 3.2 4.8 0.00 0.61 0.61 81 1006.9
20260831155502 21 97 0.0 4.8 0.00 0.61 0.61 83 1006.9
20260831155001 21 33 0.0 4.8 0.00 0.61 0.61 83 1006.9
20260831154503 21 102 0.0 4.8 0.00 0.61 0.61 82 1006.5
20260831154001 21 81 0.0 3.2 0.00 0.61 0.61 84 1006.5
20260831153502 21 188 0.0 3.2 0.00 0.61 0.61 84 1006.9
20260831153000 21 0 0.0 4.8 0.00 0.61 0.61 87 1006.9
20260831152503 21 172 0.0 4.8 0.00 0.61 0.61 88 1006.5
20260831152001 20 124 3.2 3.2 0.00 0.61 0.61 88 1006.5
20260831151500 20 279 0.0 3.2 0.00 0.61 0.61 90 1006.5
20260831151001 20 0 0.0 1.6 0.00 0.61 0.61 89 1006.5
20260831150501 20 186 0.0 4.8 0.00 0.61 0.61 90 1006.5
20260831150002 20 26 0.0 4.8 0.00 0.61 0.61 89 1006.5
20260831145502 20 254 0.0 4.8 0.00 0.61 0.61 91 1006.5
20260831145001 20 270 0.0 3.2 0.00 0.61 0.61 90 1006.5
20260831144503 21 270 0.0 3.2 0.00 0.61 0.61 88 1006.1
20260831144001 20 0 0.0 3.2 0.00 0.61 0.61 89 1006.1
20260831143502 20 180 0.0 3.2 0.00 0.61 0.61 95 1006.1
20260831143001 19 209 0.0 4.8 0.00 0.61 0.61 99 1006.1
20260831142000 17 90 0.0 3.2 0.00 0.61 0.61 99 1006.5
20260831141502 18 195 0.0 4.8 0.00 0.61 0.61 99 1006.5
20260831141001 18 147 0.0 4.8 0.00 0.61 0.61 99 1006.1
20260831140502 18 262 0.0 3.2 0.00 0.61 0.61 99 1006.1
20260831140005 17 0 1.6 4.8 0.00 0.61 0.61 99 1006.5
20260831135503 17 180 0.0 4.8 0.00 0.61 0.61 99 1006.1
20260831134507 17 0 0.0 1.6 0.00 0.61 0.61 99 1005.7
20260831133504 18 180 0.0 3.2 0.00 0.61 0.61 99 1005.7
20260831133005 18 336 0.0 3.2 0.00 0.61 0.61 99 1005.7
20260831132503 17 151 0.0 3.2 0.00 0.61 0.61 99 1005.7
20260831132002 18 66 0.0 3.2 0.00 0.61 0.61 99 1005.7
20260831131503 17 186 0.0 4.8 0.00 0.61 0.61 99 1005.7
20260831131001 17 6 1.6 4.8 0.00 0.61 0.61 99 1005.7
20260831130502 18 90 0.0 3.2 0.00 0.61 0.61 99 1005.7
20260831130001 17 186 0.0 4.8 0.00 0.61 0.61 99 1005.4
20260831125502 17 157 0.0 4.8 0.00 0.61 0.61 99 1005.7
20260831124959 17 188 0.0 4.8 0.00 0.61 0.61 99 1005.1
20260831124501 17 191 3.2 9.7 0.00 0.61 0.61 99 1005.1
20260831123959 17 157 1.6 9.7 0.00 0.61 0.61 99 1005.4
20260831123501 18 90 0.0 3.2 0.00 0.61 0.61 99 1005.1
20260831122959 18 187 0.0 6.4 0.00 0.61 0.61 99 1004.7
20260831122500 18 145 0.0 6.4 0.00 0.61 0.61 99 1004.7
20260831121459 19 109 0.0 4.8 0.00 0.61 0.61 99 1004.4
20260831120957 19 168 0.0 4.8 0.00 0.61 0.61 99 1004.0
20260831120458 19 66 0.0 3.2 0.00 0.61 0.61 99 1004.4
20260831115956 19 175 0.0 0.0 0.00 0.61 0.61 99 1004.0
20260831115458 19 175 0.0 1.6 0.00 0.61 0.61 99 1004.0
20260831114956 19 175 0.0 1.6 0.00 0.61 0.61 99 1004.0
20260831114456 19 195 0.0 1.6 0.00 0.61 0.61 99 1003.6
20260831112955 19 270 0.0 1.6 0.00 0.61 0.61 99 1003.3
20260831112456 19 337 0.0 1.6 0.00 0.61 0.61 99 1003.3
20260831111954 19 346 0.0 1.6 0.00 0.61 0.61 99 1003.3
20260831111455 19 346 0.0 4.8 0.00 0.61 0.61 99 1003.3
20260831110953 19 346 3.2 4.8 0.00 0.61 0.61 99 1003.3
20260831110455 19 255 0.0 1.6 0.00 0.61 0.61 99 1003.3
20260831105455 19 303 0.0 3.2 0.00 0.61 0.61 99 1003.3
20260831104952 19 188 0.0 8.0 0.00 0.61 0.61 99 1002.9
20260831103951 19 340 0.0 4.8 0.00 0.61 0.61 99 1002.9
20260831103453 19 45 0.0 4.8 0.00 0.61 0.61 99 1002.9
20260831102951 19 12 0.0 4.8 0.00 0.61 0.61 99 1002.6
20260831102451 19 180 0.0 3.2 0.00 0.61 0.61 99 1002.9
20260831101950 19 328 0.0 3.2 0.00 0.61 0.61 99 1002.6
20260831101450 19 33 0.0 3.2 0.00 0.61 0.61 99 1002.9
20260831100951 19 352 0.0 4.8 0.00 0.61 0.61 99 1002.6
20260831100451 19 305 0.0 4.8 0.00 0.61 0.61 99 1002.6
20260831095451 19 287 3.2 3.2 0.00 0.61 0.61 99 1002.6
20260831094949 19 300 0.0 3.2 0.00 0.61 0.61 99 1002.6
20260831094450 18 255 0.0 3.2 0.00 0.61 0.61 99 1002.6
20260831093948 19 261 0.0 6.4 0.00 0.61 0.61 99 1002.6
20260831093450 18 285 0.0 6.4 0.00 0.61 0.61 99 1002.3
20260831092947 18 264 1.6 6.4 0.00 0.61 0.61 99 1002.3
20260831092449 18 282 3.2 6.4 0.00 0.61 0.61 99 1002.6
20260831091947 18 294 3.2 4.8 0.00 0.61 0.61 99 1002.3
20260831091448 18 346 1.6 4.8 0.03 0.61 0.61 99 1002.3
20260831090947 18 303 3.2 3.2 0.03 0.61 0.61 99 1002.6
20260831090448 18 285 1.6 4.8 0.03 0.61 0.61 99 1002.6
20260831085946 18 315 0.0 4.8 0.15 0.61 0.61 99 1002.6
20260831085445 18 195 0.0 6.4 0.20 0.61 0.61 99 1002.6
20260831084945 18 339 3.2 6.4 0.20 0.61 0.61 99 1002.6
20260831083945 18 329 3.2 8.0 0.20 0.61 0.61 99 1002.3
20260831083445 18 300 0.0 6.4 0.20 0.61 0.61 99 1002.3
20260831082944 18 291 1.6 6.4 0.20 0.61 0.61 99 1002.6
20260831082445 18 312 0.0 6.4 0.20 0.61 0.61 99 1002.6
20260831081444 18 279 6.4 6.4 0.18 0.58 0.58 99 1002.9
20260831080942 18 261 0.0 6.4 0.18 0.58 0.58 99 1002.9
20260831075942 18 121 0.0 3.2 0.05 0.46 0.43 99 1004.0
20260831075441 18 270 1.6 3.2 0.00 0.41 0.41 99 1004.0
20260831074443 18 270 1.6 4.8 0.00 0.41 0.41 99 1003.3
20260831073941 18 337 0.0 6.4 0.00 0.41 0.41 99 1003.3
20260831072941 18 303 3.2 4.8 0.00 0.41 0.41 99 1003.3
20260831072442 18 292 0.0 3.2 0.05 0.41 0.41 99 1003.3
20260831071940 18 320 3.2 4.8 0.41 0.41 0.41 99 1003.3
20260831070441 18 303 0.0 4.8 0.41 0.41 0.41 99 1003.3